User: anonymous   Login
Location: Unspecified
(0.0000°N, 0.0000°E)
Time: 07:37:22
(UTC+00:00)
Language:

Megsat 1 - Orbit

View from above orbital plane
View from above orbital plane
View from above satellite
View from above satellite

Ground track
Ground track

The orbit data is extracted from the following two-line orbital elements,

1 26545U 00057A   17289.89921330 +.00000120 +00000-0 +31655-4 0  9993
2 26545 064.5547 069.5127 0028441 205.5962 154.3739 14.84804251922421
Epoch (UTC): 16 October 2017 21:34:52
Eccentricity: 0.0028441
inclination: 64.5547°
perigee height: 594 km
apogee height: 634 km
right ascension of ascending node: 69.5127°
argument of perigee: 205.5962°
revolutions per day: 14.84804251
mean anomaly at epoch: 154.3739°
orbit number at epoch: 92242

The dashed part of the orbit path shows where the satellite is in the earth's shadow,  

DLR